TimeCDT,TemperatureF,Dew PointF,Humidity,Sea Level PressureIn,VisibilityMPH,Wind Direction,Wind SpeedMPH,Gust SpeedMPH,PrecipitationIn,Events,Conditions,WindDirDegrees,DateUTC
12:52 AM,41.0,26.1,55,30.17,10.0,SSW,11.5,-,N/A,,Clear,200,2013-04-04 05:52:00
1:52 AM,39.0,25.0,57,30.17,10.0,SSW,9.2,-,N/A,,Clear,210,2013-04-04 06:52:00
2:52 AM,37.0,25.0,62,30.17,10.0,SSW,6.9,-,N/A,,Clear,210,2013-04-04 07:52:00
3:52 AM,37.9,26.1,62,30.15,10.0,WSW,3.5,-,N/A,,Clear,240,2013-04-04 08:52:00
4:52 AM,37.0,28.0,70,30.14,10.0,SW,6.9,-,N/A,,Clear,230,2013-04-04 09:52:00
5:52 AM,36.0,28.0,73,30.13,10.0,SW,6.9,-,N/A,,Clear,230,2013-04-04 10:52:00
6:52 AM,34.0,27.0,75,30.13,10.0,SSW,6.9,-,N/A,,Clear,200,2013-04-04 11:52:00
7:52 AM,37.0,30.0,76,30.14,10.0,South,6.9,-,N/A,,Partly Cloudy,190,2013-04-04 12:52:00
8:52 AM,41.0,32.0,70,30.13,10.0,SW,9.2,-,N/A,,Scattered Clouds,230,2013-04-04 13:52:00
9:52 AM,45.0,33.1,63,30.12,10.0,WNW,10.4,-,N/A,,Partly Cloudy,300,2013-04-04 14:52:00
10:52 AM,48.9,33.1,54,30.13,10.0,NW,6.9,-,N/A,,Mostly Cloudy,320,2013-04-04 15:52:00
11:52 AM,52.0,33.1,49,30.14,10.0,NNE,8.1,-,N/A,,Partly Cloudy,30,2013-04-04 16:52:00
12:52 PM,55.9,34.0,44,30.14,10.0,NNE,8.1,-,N/A,,Clear,30,2013-04-04 17:52:00
1:52 PM,57.9,30.0,35,30.13,10.0,North,15.0,-,N/A,,Clear,10,2013-04-04 18:52:00
2:52 PM,57.9,27.0,31,30.12,10.0,NE,13.8,19.6,N/A,,Clear,50,2013-04-04 19:52:00
3:52 PM,60.1,21.9,23,30.10,10.0,NE,10.4,-,N/A,,Clear,40,2013-04-04 20:52:00
4:52 PM,61.0,21.9,22,30.09,10.0,North,9.2,17.3,N/A,,Clear,10,2013-04-04 21:52:00
5:52 PM,60.1,21.9,23,30.11,10.0,NNE,10.4,25.3,N/A,,Clear,20,2013-04-04 22:52:00
6:52 PM,55.9,21.9,27,30.13,10.0,NNE,9.2,-,N/A,,Overcast,20,2013-04-04 23:52:00
7:52 PM,53.1,26.1,35,30.13,10.0,NE,8.1,-,N/A,,Mostly Cloudy,50,2013-04-05 00:52:00
8:52 PM,51.1,27.0,39,30.14,10.0,NE,8.1,-,N/A,,Overcast,40,2013-04-05 01:52:00
9:52 PM,46.0,28.9,51,30.16,10.0,NE,9.2,18.4,N/A,,Clear,50,2013-04-05 02:52:00
10:52 PM,42.1,28.9,60,30.17,10.0,NE,10.4,-,N/A,,Clear,50,2013-04-05 03:52:00
11:52 PM,39.0,28.0,65,30.18,10.0,NE,11.5,-,N/A,,Partly Cloudy,40,2013-04-05 04:52:00